• Join FlightAware (Why Join?)
  • Login
  • US Flag 
06:07AM EST


 

Airport Tracker/Info


-or-


 

Live Flight TrackerFlight Track Log ✈ FIV521 ✈ 19-Apr-2013 ✈ KLZU - KINT

Flight Track Log - Related Links

Times and Time Zones

All times are in EDT time to prevent confusion due to time zone crossing. See the FIV521 flight status page for this flight to view local times or setup timezone preferences in your user account.

Time Position Orientation Groundspeed Altitude Reporting Facility
EDT Latitude Longitude Course Direction KTS MPH feet Rate Location/Type
12:46PM 33.9667 -83.9833 113° Southeast 167 192 2,300  Level Atlanta TRACON
12:48PM 33.9150 -83.8336 113° Southeast 246 283 8,400 2,580 Climbing Atlanta Center
12:49PM 33.9567 -83.7358 63° Northeast 284 327 11,300 2,940 Climbing Atlanta Center
12:50PM 34.0128 -83.6453 53° Northeast 306 352 14,300 2,400 Climbing Atlanta Center
12:51PM 34.0731 -83.5522 52° Northeast 334 384 16,100 1,680 Climbing Atlanta Center
12:52PM 34.1331 -83.4542 54° Northeast 350 403 17,700 1,560 Climbing Atlanta Center
12:53PM 34.1908 -83.3508 56° Northeast 367 422 19,300 1,560 Climbing Atlanta Center
12:54PM 34.2572 -83.2447 53° Northeast 382 440 20,900 1,440 Climbing Atlanta Center
12:55PM 34.3128 -83.1511 54° Northeast 387 445 22,200 1,020 Climbing Atlanta Center
12:56PM 34.3808 -83.0369 54° Northeast 397 457 23,000 360 Climbing Atlanta Center
12:57PM 34.4528 -82.9178 54° Northeast 421 484 23,000  Level Atlanta Center
12:58PM 34.5267 -82.7908 55° Northeast 448 516 23,000  Level Atlanta Center
12:59PM 34.6025 -82.6633 54° Northeast 462 532 23,000  Level Atlanta Center
01:00PM 34.6822 -82.5258 55° Northeast 462 532 23,000  Level Atlanta Center
01:01PM 34.7581 -82.4031 53° Northeast 457 526 23,000  Level Atlanta Center
01:02PM 34.8292 -82.2775 55° Northeast 457 526 23,000  Level Atlanta Center
01:03PM 34.9025 -82.1494 55° Northeast 457 526 23,000  Level Atlanta Center
01:04PM 34.9778 -82.0261 53° Northeast 457 526 23,000  Level Atlanta Center
01:05PM 35.0572 -81.9100 50° Northeast 457 526 23,000  Level Atlanta Center
01:06PM 35.1433 -81.8214 40° Northeast 451 519 23,000 -660 Level Atlanta Center
01:07PM 35.2181 -81.6972 54° Northeast 445 512 21,700 -1,440 Descending Atlanta Center
01:08PM 35.2950 -81.5731 53° Northeast 445 512 20,200 -1,500 Descending Atlanta Center
01:09PM 35.3739 -81.4483 52° Northeast 455 524 18,800 -1,500 Descending Atlanta Center
01:10PM 35.4483 -81.3261 53° Northeast 455 524 17,200 -1,500 Descending Atlanta Center
01:11PM 35.5228 -81.2089 52° Northeast 442 509 15,800 -1,140 Descending Atlanta Center
01:12PM 35.6081 -81.1039 45° Northeast 434 499 15,000 -420 Descending Atlanta Center
01:13PM 35.7039 -81.0083 39° Northeast 435 501 15,000 -60 Level Atlanta Center
01:14PM 35.7994 -80.9153 38° Northeast 435 501 14,900 1,980 Descending Atlanta Center
01:15PM 35.8869 -80.8272 39° Northeast 422 486 19,000 -2,100 Climbing Atlanta Center
01:16PM 35.9467 -80.7247 54° Northeast 365 420 10,700 -5,700 Descending Atlanta Center
01:17PM 35.9817 -80.6233 67° East 342 394 7,700 -2,640 Descending Atlanta Center
01:18PM 36.0222 -80.5086 66° East 335 386 5,500 -1,800 Descending Atlanta Center
01:19PM 36.0719 -80.4269 53° Northeast 299 344 4,100 -720 Descending Atlanta Center
01:20PM 36.1422 -80.4108 10° North 270 311 4,100  Level Atlanta Center
01:21PM 36.2042 -80.3900 15° North 249 287 4,100  Level Atlanta Center
01:22PM 36.2553 -80.3517 31° Northeast 229 264 4,100 -600 Level Atlanta Center
01:23PM 36.2372 -80.3061 116° Southeast 150 173 2,900 -780 Descending Atlanta Center
01:24PM 36.2011 -80.2822 152° Southeast 106 122 2,600 -300 Descending Atlanta Center
01:26PM 36.1333 -80.2167 146° Southeast  Level FlightAware Approximate